Location: Bonny Doon Airfield
(37.0704°N, 122.1252°W)
Time: 19:56:47
(UTC-08:00)

BREEZE M DEB (TANK) - Visible Passes

Search period start: 18 February 2018 00:00
Search period end: 28 February 2018 00:00
Orbit: 336 x 13671 km, 49.6° (Epoch: 18 February)

Date Brightness Start Highest point End Pass type
(mag) Time Alt. Az. Time Alt. Az. Time Alt. Az.
18 Feb 7.7 02:48:17 10° NW 04:18:10 49° WSW 04:38:17 10° S visible
18 Feb 9.2 18:20:19 10° SW 19:17:29 89° NW 21:14:39 10° ENE visible
18 Feb 8.2 23:17:25 10° WNW 01:27:34 86° NE 01:58:10 10° SE visible
19 Feb 7.9 05:14:54 10° NW 05:55:21 19° W 06:13:07 10° WSW visible
19 Feb 9.0 15:40:04 10° S 16:20:40 51° E 18:06:55 10° NE visible
19 Feb 8.7 20:10:24 10° WSW 21:47:43 72° NNW 23:09:46 10° E visible
20 Feb 7.8 01:33:20 10° NW 03:20:11 64° WSW 03:42:09 10° SSE visible
20 Feb 9.3 17:22:06 10° SSW 18:09:54 81° ESE 20:10:26 10° ENE visible
20 Feb 8.3 22:09:22 10° W 00:20:06 78° NNE 00:59:42 10° ESE visible
21 Feb 7.7 03:55:25 10° NW 05:00:49 30° W 05:21:12 10° SW visible
21 Feb 8.9 19:09:29 10° WSW 20:23:25 77° NNW 22:08:13 10° E visible
22 Feb 7.9 00:20:05 10° WNW 02:20:08 77° SW 02:45:17 10° SSE visible
22 Feb 9.2 16:24:45 10° SSW 17:06:23 69° ESE 19:04:42 10° ENE visible
22 Feb 8.5 21:04:01 10° W 23:06:37 73° NNE 00:00:26 10° ESE visible
23 Feb 7.7 02:38:56 10° NW 04:05:03 43° W 04:26:43 10° SSW visible
23 Feb 9.1 18:09:53 10° SW 19:07:32 84° NW 21:05:24 10° ENE visible
23 Feb 8.1 23:09:08 10° WNW 01:17:30 89° SW 01:47:45 10° SE visible
24 Feb 8.0 05:09:42 10° NW 05:40:24 15° WNW 05:57:13 10° WSW visible
24 Feb 8.6 20:00:54 10° WSW 21:44:07 72° N 23:00:13 10° E visible
25 Feb 7.8 01:24:13 10° NW 03:07:45 57° WSW 03:30:58 10° S visible
25 Feb 9.2 17:11:18 10° SW 17:58:14 86° SE 20:01:07 10° ENE visible
25 Feb 8.0 22:00:49 10° WNW 00:11:18 82° NE 00:49:32 10° ESE visible
26 Feb 7.8 03:46:46 10° NW 04:46:26 25° W 05:08:13 10° SW visible
26 Feb 8.8 18:59:33 10° WSW 20:17:27 74° NNW 21:52:43 19° E visible
27 Feb 7.6 00:11:19 10° WNW 02:08:29 71° WSW 02:34:24 10° SSE visible
27 Feb 9.3 16:13:34 10° SSW 16:53:28 75° ESE 18:55:14 10° ENE visible
27 Feb 8.3 20:55:03 10° W 22:59:52 75° NNE 23:31:39 51° E visible
